| time (UTC) | temp F | wind direction | speed MPH | gust MPH | rain 1hr in | rain 24hr in | rain mn in | humidity % | barometer mb |
| 20260502130206 | 46 | 354 | 5.0 | 12.0 | 0.00 | 0.00 | 0.00 | 64 | 939.1 |
| 20260502123634 | 44 | 341 | 3.0 | 12.0 | 0.00 | 0.00 | 0.00 | 69 | 1093.7 |
| 20260502123133 | 44 | 1 | 2.0 | 12.0 | 0.00 | 0.00 | 0.00 | 69 | 1027.2 |
| 20260502122632 | 44 | 338 | 2.0 | 12.0 | 0.00 | 0.00 | 0.00 | 69 | 1185.3 |
| 20260502122131 | 44 | 335 | 2.0 | 12.0 | 0.00 | 0.00 | 0.00 | 69 | 1176.6 |
| 20260502121631 | 44 | 339 | 2.0 | 12.0 | 0.00 | 0.00 | 0.00 | 69 | 1181.0 |
| 20260502121130 | 43 | 338 | 1.0 | 12.0 | 0.00 | 0.00 | 0.00 | 69 | 1182.2 |
| 20260502120629 | 43 | 320 | 2.0 | 12.0 | 0.00 | 0.00 | 0.00 | 69 | 1183.5 |
| 20260502120128 | 43 | 355 | 1.0 | 12.0 | 0.00 | 0.00 | 0.00 | 69 | 1230.0 |
| 20260502115628 | 43 | 357 | 1.0 | 12.0 | 0.00 | 0.00 | 0.00 | 69 | 1231.7 |
| 20260502115128 | 43 | 359 | 1.0 | 12.0 | 0.00 | 0.00 | 0.00 | 69 | 1231.7 |
| 20260502114628 | 43 | 359 | 1.0 | 12.0 | 0.00 | 0.00 | 0.00 | 68 | 1226.5 |
| 20260502114128 | 43 | 0 | 2.0 | 12.0 | 0.00 | 0.00 | 0.00 | 69 | 1216.5 |
| 20260502113628 | 43 | 358 | 2.0 | 12.0 | 0.00 | 0.00 | 0.00 | 69 | 1199.3 |
| 20260502113127 | 43 | 0 | 2.0 | 12.0 | 0.00 | 0.00 | 0.00 | 68 | 1170.4 |
| 20260502112110 | 43 | 358 | 4.0 | 12.0 | 0.00 | 0.00 | 0.00 | 68 | 1016.3 |
| 20260502111055 | 43 | 0 | 3.0 | 12.0 | 0.00 | 0.00 | 0.00 | 67 | 689.0 |
| 20260502110554 | 44 | 359 | 4.0 | 12.0 | 0.00 | 0.00 | 0.00 | 67 | 784.5 |
| 20260502105537 | 44 | 0 | 4.0 | 12.0 | 0.00 | 0.00 | 0.00 | 66 | 694.2 |
| 20260502105036 | 44 | 0 | 5.0 | 12.0 | 0.00 | 0.00 | 0.00 | 65 | 582.8 |
| 20260502104021 | 44 | 2 | 6.0 | 12.0 | 0.00 | 0.00 | 0.00 | 65 | 358.3 |
| 20260502103520 | 45 | 4 | 6.0 | 12.0 | 0.00 | 0.00 | 0.00 | 65 | 311.0 |
| 20260502103019 | 45 | 4 | 6.0 | 12.0 | 0.00 | 0.00 | 0.00 | 65 | 332.9 |
| 20260502102518 | 44 | 7 | 5.0 | 12.0 | 0.00 | 0.00 | 0.00 | 66 | 314.9 |
| 20260502102017 | 44 | 6 | 6.0 | 12.0 | 0.00 | 0.00 | 0.00 | 66 | 308.9 |
| 20260502101517 | 45 | 5 | 6.0 | 12.0 | 0.00 | 0.00 | 0.00 | 66 | 349.1 |
| 20260502101016 | 45 | 5 | 5.0 | 12.0 | 0.00 | 0.00 | 0.00 | 65 | 391.9 |
| 20260502100516 | 45 | 1 | 4.0 | 12.0 | 0.00 | 0.00 | 0.00 | 64 | 410.5 |
| 20260502091410 | 46 | 0 | 5.0 | 12.0 | 0.00 | 0.00 | 0.00 | 63 | 489.5 |
| 20260502090909 | 46 | 3 | 5.0 | 12.0 | 0.00 | 0.00 | 0.00 | 63 | 370.9 |
| 20260502090408 | 46 | 2 | 5.0 | 12.0 | 0.00 | 0.00 | 0.00 | 62 | 407.5 |
| 20260502071242 | 49 | 3 | 5.0 | 12.0 | 0.00 | 0.00 | 0.00 | 60 | 466.7 |
| 20260502070741 | 49 | 3 | 6.0 | 12.0 | 0.00 | 0.00 | 0.00 | 60 | 470.3 |
| 20260502065725 | 49 | 0 | 5.0 | 12.0 | 0.00 | 0.00 | 0.00 | 61 | 316.2 |
| 20260502065224 | 49 | 2 | 4.0 | 12.0 | 0.00 | 0.00 | 0.00 | 62 | 264.7 |
| 20260502064724 | 49 | 2 | 4.0 | 12.0 | 0.00 | 0.00 | 0.00 | 62 | 250.7 |
| 20260502064224 | 49 | 6 | 4.0 | 12.0 | 0.00 | 0.00 | 0.00 | 62 | 261.3 |
| 20260502063723 | 49 | 6 | 5.0 | 12.0 | 0.00 | 0.00 | 0.00 | 61 | 262.4 |
| 20260502063222 | 50 | 5 | 5.0 | 12.0 | 0.00 | 0.00 | 0.00 | 61 | 238.2 |
| 20260502062722 | 50 | 6 | 5.0 | 12.0 | 0.00 | 0.00 | 0.00 | 62 | 232.5 |
| 20260502062222 | 50 | 7 | 5.0 | 12.0 | 0.00 | 0.00 | 0.00 | 62 | 239.7 |
| 20260502061221 | 50 | 4 | 5.0 | 12.0 | 0.00 | 0.00 | 0.00 | 62 | 303.3 |
| 20260502060721 | 50 | 4 | 5.0 | 12.0 | 0.00 | 0.00 | 0.00 | 62 | 366.7 |
| 20260502060221 | 50 | 2 | 5.0 | 12.0 | 0.00 | 0.00 | 0.00 | 62 | 402.9 |
| 20260502055205 | 51 | 3 | 6.0 | 12.0 | 0.00 | 0.00 | 0.00 | 62 | 523.4 |
| 20260502054150 | 52 | 1 | 5.0 | 12.0 | 0.00 | 0.00 | 0.00 | 63 | 601.1 |
| 20260502053650 | 52 | 1 | 6.0 | 12.0 | 0.00 | 0.00 | 0.00 | 63 | 557.1 |
| 20260502053149 | 52 | 1 | 4.0 | 12.0 | 0.00 | 0.00 | 0.00 | 64 | 509.9 |
| 20260502051616 | 52 | 1 | 5.0 | 12.0 | 0.00 | 0.00 | 0.00 | 64 | 692.9 |
| 20260502051115 | 53 | 1 | 5.0 | 12.0 | 0.00 | 0.00 | 0.00 | 64 | 568.4 |
| 20260502050614 | 53 | 2 | 5.0 | 12.0 | 0.00 | 0.00 | 0.00 | 63 | 522.9 |
| 20260502050113 | 53 | 0 | 5.0 | 12.0 | 0.00 | 0.00 | 0.00 | 63 | 578.9 |
| 20260502045612 | 54 | 1 | 5.0 | 12.0 | 0.00 | 0.00 | 0.00 | 62 | 458.5 |
| 20260502045111 | 53 | 0 | 5.0 | 12.0 | 0.00 | 0.00 | 0.00 | 63 | 322.0 |
| 20260502044610 | 53 | 8 | 4.0 | 12.0 | 0.00 | 0.00 | 0.00 | 65 | 201.3 |
| 20260502044109 | 53 | 3 | 4.0 | 12.0 | 0.00 | 0.00 | 0.00 | 65 | 207.0 |
| 20260502043608 | 53 | 7 | 4.0 | 12.0 | 0.00 | 0.00 | 0.00 | 66 | 197.9 |
| 20260502043107 | 53 | 7 | 4.0 | 12.0 | 0.00 | 0.00 | 0.00 | 68 | 210.7 |
| 20260502040503 | 54 | 32 | 2.0 | 12.0 | 0.00 | 0.00 | 0.00 | 68 | 500.5 |
| 20260502040002 | 54 | 1 | 3.0 | 12.0 | 0.00 | 0.00 | 0.00 | 67 | 736.4 |
| 20260502035502 | 54 | 0 | 3.0 | 12.0 | 0.00 | 0.00 | 0.00 | 68 | 1089.7 |
| 20260502035001 | 54 | 352 | 2.0 | 12.0 | 0.00 | 0.00 | 0.00 | 67 | 1145.3 |
| 20260502034501 | 54 | 328 | 2.0 | 12.0 | 0.00 | 0.00 | 0.00 | 67 | 1104.3 |
| 20260502034001 | 54 | 323 | 1.0 | 12.0 | 0.00 | 0.00 | 0.00 | 66 | 1070.4 |
| 20260502033500 | 54 | 305 | 1.0 | 12.0 | 0.00 | 0.00 | 0.00 | 66 | 1030.5 |
| 20260502032445 | 55 | 284 | 1.0 | 12.0 | 0.00 | 0.00 | 0.00 | 64 | 1005.6 |
| 20260502031945 | 55 | 284 | 1.0 | 12.0 | 0.00 | 0.00 | 0.00 | 63 | 999.8 |
| 20260502031444 | 55 | 280 | 1.0 | 12.0 | 0.00 | 0.00 | 0.00 | 62 | 992.9 |
| 20260502030944 | 56 | 279 | 1.0 | 12.0 | 0.00 | 0.00 | 0.00 | 62 | 987.7 |
| 20260502025929 | 56 | 276 | 1.0 | 12.0 | 0.00 | 0.00 | 0.00 | 62 | 985.7 |
| 20260502025427 | 56 | 276 | 0.0 | 12.0 | 0.00 | 0.00 | 0.00 | 61 | 985.8 |
| 20260502024927 | 56 | 276 | 1.0 | 12.0 | 0.00 | 0.00 | 0.00 | 61 | 986.6 |
| 20260502024426 | 56 | 276 | 0.0 | 12.0 | 0.00 | 0.00 | 0.00 | 61 | 986.7 |
| 20260502023925 | 56 | 276 | 1.0 | 12.0 | 0.00 | 0.00 | 0.00 | 61 | 986.3 |
| 20260502023425 | 56 | 276 | 1.0 | 12.0 | 0.00 | 0.00 | 0.00 | 60 | 986.8 |
| 20260502022924 | 56 | 276 | 0.0 | 12.0 | 0.00 | 0.00 | 0.00 | 59 | 986.9 |
| 20260502022423 | 57 | 276 | 0.0 | 12.0 | 0.00 | 0.00 | 0.00 | 59 | 986.7 |
| 20260502021407 | 57 | 276 | 0.0 | 12.0 | 0.00 | 0.00 | 0.00 | 59 | 986.9 |
| 20260502020906 | 57 | 276 | 1.0 | 12.0 | 0.00 | 0.00 | 0.00 | 59 | 986.7 |
| 20260502020405 | 57 | 276 | 0.0 | 12.0 | 0.00 | 0.00 | 0.00 | 58 | 986.2 |
| 20260502015905 | 57 | 276 | 1.0 | 12.0 | 0.00 | 0.00 | 0.00 | 58 | 985.0 |
| 20260502014848 | 58 | 274 | 1.0 | 12.0 | 0.00 | 0.00 | 0.00 | 56 | 980.5 |
| 20260502014348 | 58 | 274 | 1.0 | 12.0 | 0.00 | 0.00 | 0.00 | 55 | 980.2 |
| 20260502013847 | 58 | 274 | 0.0 | 12.0 | 0.00 | 0.00 | 0.00 | 54 | 979.5 |
| 20260502013346 | 59 | 274 | 1.0 | 12.0 | 0.00 | 0.00 | 0.00 | 53 | 978.0 |
| 20260502012846 | 59 | 274 | 1.0 | 12.0 | 0.00 | 0.00 | 0.00 | 53 | 975.5 |
| 20260502011829 | 59 | 275 | 1.0 | 12.0 | 0.00 | 0.00 | 0.00 | 53 | 958.4 |
| 20260502011328 | 60 | 264 | 2.0 | 12.0 | 0.00 | 0.00 | 0.00 | 52 | 949.4 |
| 20260502010828 | 60 | 271 | 2.0 | 12.0 | 0.00 | 0.00 | 0.00 | 52 | 946.9 |
| 20260502010327 | 60 | 256 | 5.0 | 12.0 | 0.00 | 0.00 | 0.00 | 52 | 931.0 |
| 20260502005827 | 61 | 256 | 5.0 | 12.0 | 0.00 | 0.00 | 0.00 | 50 | 934.6 |
| 20260502005326 | 61 | 256 | 6.0 | 12.0 | 0.00 | 0.00 | 0.00 | 49 | 944.4 |
| 20260502004825 | 62 | 261 | 7.0 | 12.0 | 0.00 | 0.00 | 0.00 | 48 | 957.5 |
| 20260502004324 | 62 | 254 | 6.0 | 12.0 | 0.00 | 0.00 | 0.00 | 48 | 978.4 |
| 20260502003823 | 63 | 285 | 4.0 | 12.0 | 0.00 | 0.00 | 0.00 | 45 | 1023.2 |
| 20260502003322 | 62 | 284 | 5.0 | 12.0 | 0.00 | 0.00 | 0.00 | 44 | 1024.9 |
| 20260502002821 | 62 | 284 | 3.0 | 12.0 | 0.00 | 0.00 | 0.00 | 45 | 1031.6 |
| 20260502002320 | 62 | 293 | 3.0 | 12.0 | 0.00 | 0.00 | 0.00 | 45 | 1050.2 |
| 20260502001821 | 62 | 281 | 3.0 | 12.0 | 0.00 | 0.00 | 0.00 | 45 | 1070.2 |
| 20260502000805 | 63 | 319 | 4.0 | 12.0 | 0.00 | 0.00 | 0.00 | 41 | 1093.1 |
| 20260502000304 | 63 | 327 | 4.0 | 12.0 | 0.00 | 0.00 | 0.00 | 42 | 1076.0 |
| 20260501235803 | 63 | 351 | 2.0 | 12.0 | 0.00 | 0.00 | 0.00 | 44 | 1112.2 |
| 20260501235305 | 63 | 335 | 3.0 | 12.0 | 0.00 | 0.00 | 0.00 | 44 | 1053.5 |
| 20260501234802 | 62 | 328 | 2.0 | 12.0 | 0.00 | 0.00 | 0.00 | 44 | 1102.5 |
| 20260501234301 | 63 | 336 | 3.0 | 12.0 | 0.00 | 0.00 | 0.00 | 43 | 1101.1 |
| 20260501233801 | 63 | 340 | 3.0 | 12.0 | 0.00 | 0.00 | 0.00 | 43 | 1118.5 |
| 20260501233300 | 63 | 331 | 2.0 | 12.0 | 0.00 | 0.00 | 0.00 | 43 | 1123.6 |
| 20260501232759 | 63 | 326 | 4.0 | 12.0 | 0.00 | 0.00 | 0.00 | 41 | 1098.7 |
| 20260501232258 | 63 | 326 | 3.0 | 12.0 | 0.00 | 0.00 | 0.00 | 41 | 1087.0 |
| 20260501231243 | 64 | 337 | 5.0 | 12.0 | 0.00 | 0.00 | 0.00 | 40 | 1042.5 |
| 20260501230742 | 64 | 358 | 4.0 | 12.0 | 0.00 | 0.00 | 0.00 | 42 | 1059.7 |
| 20260501230240 | 63 | 340 | 3.0 | 12.0 | 0.00 | 0.00 | 0.00 | 40 | 1044.6 |
| 20260501225740 | 64 | 328 | 2.0 | 12.0 | 0.00 | 0.00 | 0.00 | 41 | 947.2 |
| 20260501225239 | 64 | 4 | 5.0 | 12.0 | 0.00 | 0.00 | 0.00 | 39 | 736.5 |
| 20260501224737 | 64 | 317 | 3.0 | 12.0 | 0.00 | 0.00 | 0.00 | 40 | 1071.1 |
| 20260501223722 | 64 | 280 | 3.0 | 12.0 | 0.00 | 0.00 | 0.00 | 40 | 1034.4 |
| 20260501223222 | 63 | 286 | 3.0 | 12.0 | 0.00 | 0.00 | 0.00 | 39 | 1048.8 |
| 20260501222720 | 63 | 296 | 3.0 | 12.0 | 0.00 | 0.00 | 0.00 | 41 | 1068.7 |
| 20260501222221 | 63 | 323 | 4.0 | 12.0 | 0.00 | 0.00 | 0.00 | 40 | 1057.5 |
| 20260501221719 | 63 | 332 | 3.0 | 12.0 | 0.00 | 0.00 | 0.00 | 43 | 991.1 |
| 20260501221220 | 63 | 330 | 4.0 | 12.0 | 0.00 | 0.00 | 0.00 | 40 | 995.6 |
| 20260501220202 | 64 | 355 | 4.0 | 12.0 | 0.00 | 0.00 | 0.00 | 37 | 968.3 |
| 20260501215702 | 64 | 355 | 8.0 | 12.0 | 0.00 | 0.00 | 0.00 | 39 | 990.4 |
| 20260501215201 | 63 | 323 | 4.0 | 12.0 | 0.00 | 0.00 | 0.00 | 38 | 943.9 |
| 20260501214700 | 64 | 352 | 4.0 | 12.0 | 0.00 | 0.00 | 0.00 | 39 | 874.2 |
| 20260501214159 | 64 | 1 | 7.0 | 12.0 | 0.00 | 0.00 | 0.00 | 38 | 882.6 |
| 20260501213657 | 64 | 346 | 6.0 | 12.0 | 0.00 | 0.00 | 0.00 | 38 | 929.6 |
| 20260501213157 | 64 | 330 | 4.0 | 12.0 | 0.00 | 0.00 | 0.00 | 38 | 1040.8 |
| 20260501212656 | 63 | 338 | 5.0 | 12.0 | 0.00 | 0.00 | 0.00 | 40 | 1078.0 |
| 20260501212155 | 63 | 318 | 3.0 | 12.0 | 0.00 | 0.00 | 0.00 | 41 | 1074.3 |
| 20260501211654 | 63 | 350 | 6.0 | 13.0 | 0.00 | 0.00 | 0.00 | 40 | 1044.1 |
| 20260501211153 | 63 | 333 | 4.0 | 13.0 | 0.00 | 0.00 | 0.00 | 40 | 1086.2 |
| 20260501210652 | 63 | 310 | 3.0 | 13.0 | 0.00 | 0.00 | 0.00 | 40 | 1080.3 |
| 20260501210151 | 64 | 330 | 5.0 | 13.0 | 0.00 | 0.00 | 0.00 | 38 | 1057.6 |
| 20260501205651 | 64 | 349 | 5.0 | 13.0 | 0.00 | 0.00 | 0.00 | 39 | 1023.2 |
| 20260501204634 | 63 | 269 | 5.0 | 13.0 | 0.00 | 0.00 | 0.00 | 40 | 965.9 |
| 20260501204133 | 63 | 251 | 7.0 | 13.0 | 0.00 | 0.00 | 0.00 | 39 | 950.4 |
| 20260501203632 | 63 | 254 | 5.0 | 13.0 | 0.00 | 0.00 | 0.00 | 37 | 941.5 |
| 20260501203131 | 63 | 246 | 6.0 | 13.0 | 0.00 | 0.00 | 0.00 | 40 | 975.9 |
| 20260501202114 | 63 | 310 | 2.0 | 13.0 | 0.00 | 0.00 | 0.00 | 38 | 989.0 |
| 20260501201057 | 63 | 248 | 5.0 | 13.0 | 0.00 | 0.00 | 0.00 | 36 | 934.6 |
| 20260501200557 | 63 | 253 | 6.0 | 13.0 | 0.00 | 0.00 | 0.00 | 37 | 969.4 |
| 20260501200056 | 64 | 289 | 7.0 | 13.0 | 0.00 | 0.00 | 0.00 | 37 | 1024.1 |
| 20260501195040 | 63 | 292 | 4.0 | 12.0 | 0.00 | 0.00 | 0.00 | 38 | 1044.8 |
| 20260501194540 | 63 | 311 | 5.0 | 12.0 | 0.00 | 0.00 | 0.00 | 39 | 1038.9 |
| 20260501194039 | 63 | 300 | 2.0 | 12.0 | 0.00 | 0.00 | 0.00 | 38 | 1013.4 |
| 20260501192508 | 63 | 312 | 4.0 | 14.0 | 0.00 | 0.00 | 0.00 | 39 | 988.9 |
| 20260501192007 | 63 | 250 | 9.0 | 14.0 | 0.00 | 0.00 | 0.00 | 39 | 909.1 |
| 20260501191506 | 63 | 338 | 5.0 | 12.0 | 0.00 | 0.00 | 0.00 | 41 | 918.9 |
| 20260501191006 | 63 | 318 | 3.0 | 12.0 | 0.00 | 0.00 | 0.00 | 38 | 922.7 |
| 20260501190506 | 63 | 13 | 4.0 | 12.0 | 0.00 | 0.00 | 0.00 | 37 | 879.9 |
| 20260501190006 | 63 | 262 | 5.0 | 11.0 | 0.00 | 0.00 | 0.00 | 39 | 988.2 |
| 20260501185506 | 62 | 279 | 6.0 | 11.0 | 0.00 | 0.00 | 0.00 | 38 | 963.7 |
| 20260501185006 | 63 | 255 | 6.0 | 11.0 | 0.00 | 0.00 | 0.00 | 39 | 936.8 |
| 20260501184506 | 63 | 271 | 4.0 | 11.0 | 0.00 | 0.00 | 0.00 | 38 | 999.1 |
| 20260501184006 | 62 | 282 | 1.0 | 11.0 | 0.00 | 0.00 | 0.00 | 39 | 1003.7 |
| 20260501183505 | 62 | 298 | 5.0 | 14.0 | 0.00 | 0.00 | 0.00 | 36 | 996.8 |
| 20260501183005 | 62 | 323 | 7.0 | 14.0 | 0.00 | 0.00 | 0.00 | 35 | 965.2 |
| 20260501182505 | 62 | 359 | 6.0 | 14.0 | 0.00 | 0.00 | 0.00 | 35 | 900.0 |
| 20260501181450 | 62 | 309 | 3.0 | 14.0 | 0.00 | 0.00 | 0.00 | 37 | 935.9 |
| 20260501180433 | 62 | 244 | 6.0 | 14.0 | 0.00 | 0.00 | 0.00 | 35 | 986.6 |
| 20260501175932 | 62 | 305 | 5.0 | 14.0 | 0.00 | 0.00 | 0.00 | 36 | 1038.8 |
| 20260501174915 | 62 | 299 | 5.0 | 11.0 | 0.00 | 0.00 | 0.00 | 37 | 984.1 |
| 20260501174415 | 62 | 272 | 2.0 | 11.0 | 0.00 | 0.00 | 0.00 | 40 | 950.4 |
| 20260501173914 | 61 | 232 | 3.0 | 12.0 | 0.00 | 0.00 | 0.00 | 39 | 970.2 |
| 20260501173413 | 61 | 359 | 3.0 | 12.0 | 0.00 | 0.00 | 0.00 | 37 | 891.1 |
| 20260501172912 | 61 | 252 | 2.0 | 12.0 | 0.00 | 0.00 | 0.00 | 38 | 936.4 |
| 20260501172411 | 61 | 310 | 3.0 | 12.0 | 0.00 | 0.00 | 0.00 | 37 | 959.1 |
| 20260501171910 | 61 | 237 | 6.0 | 12.0 | 0.00 | 0.00 | 0.00 | 40 | 866.8 |
| 20260501171410 | 60 | 230 | 1.0 | 12.0 | 0.00 | 0.00 | 0.00 | 37 | 869.7 |
| 20260501170354 | 60 | 236 | 4.0 | 12.0 | 0.00 | 0.00 | 0.00 | 40 | 908.5 |
| 20260501165853 | 60 | 282 | 6.0 | 12.0 | 0.00 | 0.00 | 0.00 | 42 | 918.4 |
| 20260501165352 | 60 | 281 | 5.0 | 12.0 | 0.00 | 0.00 | 0.00 | 41 | 872.4 |
| 20260501164851 | 60 | 216 | 4.0 | 12.0 | 0.00 | 0.00 | 0.00 | 42 | 808.9 |
| 20260501164350 | 60 | 204 | 4.0 | 12.0 | 0.00 | 0.00 | 0.00 | 40 | 809.5 |
| 20260501163849 | 59 | 211 | 7.0 | 12.0 | 0.00 | 0.00 | 0.00 | 42 | 834.5 |
| 20260501163348 | 59 | 232 | 5.0 | 12.0 | 0.00 | 0.00 | 0.00 | 43 | 840.6 |
| 20260501162847 | 59 | 257 | 5.0 | 14.0 | 0.00 | 0.00 | 0.00 | 45 | 802.5 |
| 20260501162346 | 59 | 178 | 3.0 | 14.0 | 0.00 | 0.00 | 0.00 | 45 | 737.3 |
| 20260501161845 | 58 | 167 | 1.0 | 14.0 | 0.00 | 0.00 | 0.00 | 44 | 767.9 |
| 20260501161344 | 58 | 212 | 6.0 | 14.0 | 0.00 | 0.00 | 0.00 | 45 | 845.4 |
| 20260501160844 | 58 | 259 | 5.0 | 14.0 | 0.00 | 0.00 | 0.00 | 44 | 896.9 |
| 20260501160344 | 57 | 243 | 6.0 | 14.0 | 0.00 | 0.00 | 0.00 | 44 | 849.8 |
| 20260501155843 | 58 | 223 | 7.0 | 14.0 | 0.00 | 0.00 | 0.00 | 45 | 815.9 |
| 20260501155343 | 58 | 234 | 4.0 | 14.0 | 0.00 | 0.00 | 0.00 | 47 | 767.8 |
| 20260501154327 | 57 | 219 | 6.0 | 14.0 | 0.00 | 0.00 | 0.00 | 49 | 783.2 |
| 20260501153826 | 57 | 212 | 3.0 | 14.0 | 0.00 | 0.00 | 0.00 | 48 | 758.0 |
| 20260501153325 | 57 | 203 | 2.0 | 14.0 | 0.00 | 0.00 | 0.00 | 51 | 717.7 |
| 20260501152824 | 57 | 161 | 1.0 | 14.0 | 0.00 | 0.00 | 0.00 | 52 | 726.6 |
| 20260501152324 | 56 | 218 | 1.0 | 14.0 | 0.00 | 0.00 | 0.00 | 49 | 783.6 |
| 20260501151307 | 56 | 179 | 2.0 | 14.0 | 0.00 | 0.00 | 0.00 | 52 | 733.0 |
| 20260501150807 | 56 | 203 | 3.0 | 14.0 | 0.00 | 0.00 | 0.00 | 53 | 683.3 |
| 20260501150307 | 56 | 165 | 3.0 | 14.0 | 0.00 | 0.00 | 0.00 | 51 | 672.8 |
| 20260501145807 | 55 | 181 | 3.0 | 14.0 | 0.00 | 0.00 | 0.00 | 53 | 700.7 |
| 20260501145306 | 55 | 183 | 2.0 | 14.0 | 0.00 | 0.00 | 0.00 | 53 | 711.0 |
| 20260501144805 | 55 | 178 | 3.0 | 14.0 | 0.00 | 0.00 | 0.00 | 52 | 719.3 |
| 20260501144304 | 55 | 200 | 4.0 | 14.0 | 0.00 | 0.00 | 0.00 | 51 | 697.1 |